Algona, IA

2:40 PM CDT on July 24, 2017 (GMT -0500)
Algona Municipal

Weather History for KAXA - December, 2012

Change the Weather History Date:

Thursday, December 6, 2012

  Actual Average Record
Temperature  
Mean Temperature 40 °F -  
Max Temperature 46 °F 34 °F 46 °F (2012)
Min Temperature 35 °F 21 °F -14 °F (2005)
Degree Days  
Heating Degree Days 24    
Moisture  
Dew Point 34 °F    
Average Humidity 74    
Maximum Humidity 93    
Minimum Humidity 57    
Precipitation  
Precipitation 0.04 in - - ()
Sea Level Pressure  
Sea Level Pressure 29.90 in    
Wind  
Wind Speed 16 mph (NW)    
Max Wind Speed 31 mph    
Max Gust Speed 37 mph    
Visibility 10 miles    
Events Rain    
Averages and records for this station are not official NWS values.
T = Trace of Precipitation, MM = Missing Value Source: NWS Daily Summary

Daily Weather History Graph

Daily Weather History Graph

Search for Another Location

Airport or City:

Trip Planner

Search our weather history database for the weather conditions in past years. The results will help you decide how hot, cold, wet, or windy it might be!

Date:

Astronomy

Dec. 06, 2012 Rise Set
Actual Time 7:34 AM CST 4:42 PM CST
Civil Twilight 7:02 AM CST 5:14 PM CST
Nautical Twilight 6:26 AM CST 5:49 PM CST
Astronomical Twilight 5:52 AM CST 6:24 PM CST
Moon No Moon Rise 12:18 PM CST (12/6)
Length of Visible Light 10h 11m
Length of Day
9h 07m
Waning Gibbous, 49% of the Moon is Illuminated
Dec 6
Waning Gibbous
Dec 13
New
Dec 19
First Quarter
Dec 28
Full
Jan 4
Last Quarter

Hourly Weather History & Observations

Time (CST) Temp. Windchill Dew Point Humidity Pressure Visibility Wind Dir Wind Speed Gust Speed Precip Events Conditions
12:15 AM 46.4 °F 37.7 °F 32.0 °F 57% 29.88 in 10.0 mi South 26.5 mph 36.8 mph N/A   Overcast
12:35 AM 46.4 °F 37.0 °F 32.0 °F 57% 29.86 in 10.0 mi South 31.1 mph - N/A   Overcast
12:55 AM 46.4 °F 37.5 °F 32.0 °F 57% 29.85 in 10.0 mi South 27.6 mph 34.5 mph N/A   Mostly Cloudy
1:15 AM 46.4 °F 37.0 °F 32.0 °F 57% 29.84 in 10.0 mi South 31.1 mph - N/A   Mostly Cloudy
1:35 AM 46.4 °F 37.7 °F 32.0 °F 57% 29.84 in 10.0 mi South 26.5 mph - N/A   Mostly Cloudy
1:55 AM 46.4 °F 37.7 °F 32.0 °F 57% 29.83 in 10.0 mi South 26.5 mph 35.7 mph N/A   Mostly Cloudy
2:15 AM 46.4 °F 37.7 °F 32.0 °F 57% 29.83 in 10.0 mi South 26.5 mph 33.4 mph N/A   Overcast
2:35 AM 46.4 °F 37.9 °F 32.0 °F 57% 29.83 in 10.0 mi South 25.3 mph - N/A   Overcast
2:55 AM 46.4 °F 38.5 °F 32.0 °F 57% 29.83 in 10.0 mi South 21.9 mph 28.8 mph N/A   Overcast
3:15 AM 44.6 °F 36.4 °F 32.0 °F 61% 29.83 in 10.0 mi South 20.7 mph 26.5 mph N/A   Mostly Cloudy
3:35 AM 44.6 °F 36.6 °F 32.0 °F 61% 29.83 in 10.0 mi South 19.6 mph - N/A   Partly Cloudy
3:55 AM 44.6 °F 37.2 °F 32.0 °F 61% 29.83 in 10.0 mi South 17.3 mph - N/A   Scattered Clouds
4:15 AM 44.6 °F 37.2 °F 32.0 °F 61% 29.82 in 10.0 mi South 17.3 mph - N/A   Overcast
7:35 AM 41.0 °F 36.4 °F 37.4 °F 87% 29.86 in 7.0 mi SSW 6.9 mph - N/A Rain Light Rain
7:55 AM 41.0 °F 35.8 °F 37.4 °F 87% 29.86 in 6.0 mi SSW 8.1 mph - 0.03 in Rain Light Rain
8:15 AM 41.0 °F 35.8 °F 37.4 °F 87% 29.86 in 7.0 mi SSW 8.1 mph - N/A Rain Light Rain
8:35 AM 41.0 °F 35.8 °F 37.4 °F 87% 29.87 in 9.0 mi SSW 8.1 mph - N/A   Light Drizzle
8:55 AM 42.8 °F 37.0 °F 37.4 °F 81% 29.87 in 10.0 mi SW 10.4 mph - 0.01 in   Light Drizzle
9:15 AM 42.8 °F 38.6 °F 37.4 °F 81% 29.87 in 10.0 mi SW 6.9 mph - N/A   Clear
9:35 AM 42.8 °F 38.0 °F 39.2 °F 87% 29.88 in 10.0 mi SW 8.1 mph - N/A   Clear
9:55 AM 44.6 °F 40.2 °F 39.2 °F 81% 29.88 in 10.0 mi WSW 8.1 mph - N/A   Mostly Cloudy
10:15 AM 44.6 °F 39.7 °F 39.2 °F 81% 29.89 in 10.0 mi West 9.2 mph - N/A   Scattered Clouds
10:35 AM 44.6 °F 39.7 °F 39.2 °F 81% 29.89 in 10.0 mi NW 9.2 mph - N/A   Clear
10:55 AM 44.6 °F 39.2 °F 35.6 °F 71% 29.89 in 10.0 mi NNW 10.4 mph 19.6 mph N/A   Partly Cloudy
11:15 AM 44.6 °F 38.8 °F 35.6 °F 71% 29.90 in 10.0 mi North 11.5 mph - N/A   Partly Cloudy
11:35 AM 44.6 °F 39.2 °F 37.4 °F 76% 29.89 in 10.0 mi North 10.4 mph - N/A   Scattered Clouds
11:55 AM 44.6 °F 39.2 °F 35.6 °F 71% 29.89 in 10.0 mi North 10.4 mph - N/A   Partly Cloudy
12:15 PM 44.6 °F 39.2 °F 35.6 °F 71% 29.89 in 10.0 mi NNW 10.4 mph - N/A   Clear
12:35 PM 44.6 °F 38.4 °F 33.8 °F 66% 29.89 in 10.0 mi NNW 12.7 mph - N/A   Clear
12:55 PM 44.6 °F 39.2 °F 33.8 °F 66% 29.89 in 10.0 mi NNW 10.4 mph - N/A   Clear
1:15 PM 44.6 °F 39.2 °F 35.6 °F 71% 29.89 in 10.0 mi North 10.4 mph - N/A   Partly Cloudy
1:35 PM 44.6 °F 38.4 °F 33.8 °F 66% 29.89 in 10.0 mi NNW 12.7 mph - N/A   Partly Cloudy
1:55 PM 44.6 °F 39.2 °F 35.6 °F 71% 29.89 in 10.0 mi North 10.4 mph - N/A   Clear
2:15 PM 44.6 °F 38.8 °F 35.6 °F 71% 29.90 in 10.0 mi NNW 11.5 mph - N/A   Clear
2:35 PM 44.6 °F 38.4 °F 33.8 °F 66% 29.90 in 10.0 mi NNW 12.7 mph - N/A   Clear
2:55 PM 44.6 °F 39.2 °F 35.6 °F 71% 29.90 in 10.0 mi NNW 10.4 mph - N/A   Partly Cloudy
3:15 PM 44.6 °F 39.2 °F 33.8 °F 66% 29.91 in 10.0 mi NNW 10.4 mph - N/A   Scattered Clouds
3:35 PM 44.6 °F 40.2 °F 35.6 °F 71% 29.91 in 10.0 mi NNW 8.1 mph - N/A   Mostly Cloudy
3:55 PM 44.6 °F 40.2 °F 35.6 °F 71% 29.91 in 10.0 mi NNW 8.1 mph - N/A   Mostly Cloudy
4:15 PM 42.8 °F 38.6 °F 35.6 °F 76% 29.92 in 10.0 mi NNW 6.9 mph - N/A   Mostly Cloudy
4:35 PM 42.8 °F 38.6 °F 35.6 °F 76% 29.92 in 10.0 mi NNW 6.9 mph - N/A   Overcast
4:55 PM 42.8 °F 40.1 °F 35.6 °F 76% 29.92 in 10.0 mi NNW 4.6 mph - N/A   Overcast
5:15 PM 41.0 °F - 35.6 °F 81% 29.93 in 10.0 mi Calm Calm - N/A   Overcast
5:35 PM 41.0 °F 39.0 °F 35.6 °F 81% 29.93 in 10.0 mi NW 3.5 mph - N/A   Overcast
5:55 PM 41.0 °F 36.4 °F 33.8 °F 76% 29.94 in 10.0 mi NW 6.9 mph - N/A   Mostly Cloudy
6:15 PM 41.0 °F 38.0 °F 33.8 °F 76% 29.94 in 10.0 mi NNW 4.6 mph - N/A   Mostly Cloudy
6:35 PM 39.2 °F 35.9 °F 33.8 °F 81% 29.94 in 10.0 mi NW 4.6 mph - N/A   Overcast
6:55 PM 39.2 °F 35.0 °F 35.6 °F 87% 29.94 in 10.0 mi NW 5.8 mph - N/A   Overcast
7:15 PM 39.2 °F 35.9 °F 35.6 °F 87% 29.95 in 10.0 mi NW 4.6 mph - N/A   Mostly Cloudy
7:35 PM 39.2 °F 35.9 °F 35.6 °F 87% 29.94 in 10.0 mi NNW 4.6 mph - N/A   Overcast
7:55 PM 37.4 °F 32.8 °F 35.6 °F 93% 29.95 in 10.0 mi NNW 5.8 mph - N/A   Overcast
8:35 PM 39.2 °F 35.0 °F 33.8 °F 81% 29.96 in 10.0 mi North 5.8 mph - N/A   Overcast
8:55 PM 39.2 °F 35.0 °F 33.8 °F 81% 29.96 in 10.0 mi North 5.8 mph - N/A   Overcast
9:15 PM 39.2 °F 33.6 °F 32.0 °F 75% 29.96 in 10.0 mi North 8.1 mph - N/A   Overcast
9:35 PM 37.4 °F 31.4 °F 32.0 °F 81% 29.96 in 10.0 mi North 8.1 mph - N/A   Overcast
9:55 PM 37.4 °F 32.1 °F 32.0 °F 81% 29.97 in 10.0 mi North 6.9 mph - N/A   Overcast
10:15 PM 37.4 °F 32.1 °F 32.0 °F 81% 29.97 in 10.0 mi North 6.9 mph - N/A   Overcast
10:35 PM 37.4 °F 31.4 °F 30.2 °F 75% 29.98 in 10.0 mi North 8.1 mph - N/A   Overcast
10:55 PM 35.6 °F 28.6 °F 30.2 °F 81% 29.98 in 10.0 mi North 9.2 mph - N/A   Overcast
11:15 PM 35.6 °F 28.6 °F 28.4 °F 75% 30.00 in 10.0 mi North 9.2 mph - N/A   Overcast
11:35 PM 35.6 °F 29.9 °F 30.2 °F 81% 29.99 in 10.0 mi North 6.9 mph 13.8 mph N/A   Overcast
11:55 PM 35.6 °F 29.9 °F 28.4 °F 75% 29.99 in 10.0 mi North 6.9 mph - N/A   Overcast